"Pseudo-MPEC" for P110H53

Created 2020 May 24 5:07:12 UT using Find_Orb

Click here for an explanation of pseudo-MPECs

 
 Astrometry: 
     P110H53  C2020 05 201_\%WAstrometrydDe,HC(e^rsC%cTs-vGZvPt3UQQyq]:?@?XR8F51
     P110H53  C2020 05 20S=VpL*$QB7(redacted;r1oNbF'3])N#$.vclick\`5^9,o02yh5F51
     P110H53  C2020 05 20*0f]7[eS[lgsP;PTILj/aO#HxgZQUI5?Of7g@M4-FPr%bhkkfC2tF51
     P110H53 ^C2020 05 22.25587715 40 49.509+12 01 41.22   ~5M6q 21.67GVNEOCP568
     P110H53 ^C2020 05 22.25777615 40 49.332+12 01 40.02   ~5M6q 21.60GVNEOCP568
     P110H53 ^C2020 05 22.25906315 40 49.215+12 01 39.24   ~5M6q 21.60GVNEOCP568
     P110H53 KC2020 05 24AJ0ayf=f#_`PMGPkI=()Yp!KAn(ACJkSek?\1vuKMHrWmu^0#AjMH21
     P110H53 KC2020 05 24BoC==L^:vPm;ufw`=M1Du]!CX_-[wbF,?2XXbb#]FTwc'b-hereWH21
     P110H53 KC2020 05 24E/#H-8O_T+_`for%#r]\4Eb7\bFYexplanationLMuY^@B^wkFitH21

Station data:
(568) Mauna Kea  (N19.826116 W155.472200)  US/Hawaii.
(F51) Pan-STARRS 1, Haleakala  (N20.707235 W156.255910)  US/Hawaii.
   Observers N. Primak, A. Schultz, S. Watters, J. Thiel, T. Goggia. Measurer
   PS1 Science Consortium. 1.8-m Ritchey-Chrétien + CCD.
(H21) Astronomical Research Observatory, Westfield  (N39.483057 W87.968270)
   US/Illinois. 0.76-m f/3.0 astrograph + CCD.

Orbital elements:  P110H53
   Perihelion 2021 Jan 23.372928 +/- 5 TT =  8:57:01 (JD 2459237.872928)
Epoch 2020 May 24.0 TT = JDT 2458993.5   Earth MOID: 0.7359   AutoNEOCP
M 264.82420386 +/- 2.5              (J2000 ecliptic)
n   0.38946947 +/- 0.00362          Peri.  247.05522 +/- 1.7
a   1.85703646 +/- 0.0115           Node    92.89058 +/- 0.37
e   0.0944512 +/- 0.00538           Incl.   24.07262 +/- 0.28
P   2.53/924.32d           H 19.9   G  0.15   U  9.0  
q 1.68163704 +/- 0.00414    Q 2.03243588 +/- 0.022
From 9 observations 2020 May 20-24; mean residual 0".08
Residuals in arcseconds: 
200520 F51  .17+  .00     200522 568  .02+  .04-    200524 H21  .16+  .06-    
200520 F51  .14-  .03+    200522 568  .02-  .01-    200524 H21  .17-  .07+    
200520 F51  .04-  .03-    200522 568  .00   .05+    200524 H21  .01+  .01-    

Ephemerides (geocentric):
Date (UTC) HH   RA              Dec         delta   r     elong  mag " sig PA
---- -- -- --  -------------   -----------  ------ ------ -----  --- ---- ---
2020 05 24 05  15 37 54.352   +11 39 16.48  .95762 1.8888 146.9 22.1 .068 151
2020 05 24 06  15 37 50.643   +11 38 46.47  .95762 1.8887 146.9 22.1 .083 149
2020 05 24 07  15 37 46.934   +11 38 16.41  .95761 1.8887 146.9 22.1 .099 148
2020 05 24 08  15 37 43.227   +11 37 46.30  .95761 1.8886 146.9 22.1 .115 147
2020 05 24 09  15 37 39.520   +11 37 16.14  .95761 1.8886 146.8 22.1 .132 146
2020 05 24 10  15 37 35.815   +11 36 45.92  .95761 1.8885 146.8 22.1 .149 145
2020 05 24 11  15 37 32.110   +11 36 15.65  .95761 1.8885 146.8 22.1 .167 144
2020 05 24 12  15 37 28.406   +11 35 45.33  .95760 1.8884 146.8 22.1 .185 144
2020 05 24 13  15 37 24.703   +11 35 14.96  .95760 1.8884 146.8 22.1 .203 144
2020 05 24 14  15 37 21.001   +11 34 44.53  .95760 1.8883 146.8 22.1 .221 143
2020 05 24 15  15 37 17.300   +11 34 14.06  .95760 1.8883 146.8 22.1 .240 143
2020 05 24 16  15 37 13.601   +11 33 43.53  .95760 1.8882 146.8 22.1 .260 143
2020 05 24 17  15 37 09.902   +11 33 12.95  .95760 1.8882 146.8 22.1 .280 142
2020 05 24 18  15 37 06.204   +11 32 42.31  .95761 1.8881 146.7 22.1 .300 142
2020 05 24 19  15 37 02.507   +11 32 11.63  .95761 1.8881 146.7 22.1 .320 142
2020 05 24 20  15 36 58.811   +11 31 40.89  .95761 1.8880 146.7 22.1 .341 142
2020 05 24 21  15 36 55.116   +11 31 10.11  .95761 1.8880 146.7 22.1 .362 141
2020 05 24 22  15 36 51.422   +11 30 39.26  .95761 1.8879 146.7 22.1 .384 141
2020 05 24 23  15 36 47.729   +11 30 08.37  .95762 1.8879 146.7 22.1 .406 141
2020 05 25 00  15 36 44.038   +11 29 37.43  .95762 1.8878 146.7 22.1 .428 141
2020 05 25 01  15 36 40.347   +11 29 06.43  .95762 1.8878 146.7 22.1 .451 141
2020 05 25 02  15 36 36.657   +11 28 35.39  .95763 1.8877 146.6 22.1 .474 141
2020 05 25 03  15 36 32.969   +11 28 04.29  .95763 1.8877 146.6 22.1 .497 141
2020 05 25 04  15 36 29.281   +11 27 33.14  .95764 1.8877 146.6 22.1 .521 140
2020 05 25 05  15 36 25.595   +11 27 01.93  .95764 1.8876 146.6 22.1 .546 140
2020 05 25 06  15 36 21.910   +11 26 30.68  .95765 1.8876 146.6 22.1 .570 140
2020 05 25 07  15 36 18.225   +11 25 59.37  .95765 1.8875 146.6 22.1 .595 140
2020 05 25 08  15 36 14.542   +11 25 28.02  .95766 1.8875 146.6 22.1 .620 140
2020 05 25 09  15 36 10.860   +11 24 56.61  .95767 1.8874 146.6 22.1 .646 140
2020 05 25 10  15 36 07.180   +11 24 25.15  .95767 1.8874 146.5 22.1 .672 140
2020 05 25 11  15 36 03.500   +11 23 53.64  .95768 1.8873 146.5 22.1 .699 140
2020 05 25 12  15 35 59.822   +11 23 22.07  .95769 1.8873 146.5 22.1 .725 140
2020 05 25 13  15 35 56.144   +11 22 50.46  .95770 1.8872 146.5 22.1 .753 140
2020 05 25 14  15 35 52.468   +11 22 18.80  .95771 1.8872 146.5 22.1 .780 139
2020 05 25 15  15 35 48.793   +11 21 47.08  .95771 1.8871 146.5 22.1 .808 139
2020 05 25 16  15 35 45.120   +11 21 15.31  .95772 1.8871 146.5 22.1 .836 139
2020 05 25 17  15 35 41.447   +11 20 43.49  .95773 1.8870 146.5 22.1 .865 139
2020 05 25 18  15 35 37.776   +11 20 11.62  .95774 1.8870 146.4 22.1 .894 139
2020 05 25 19  15 35 34.106   +11 19 39.70  .95775 1.8869 146.4 22.1 .924 139
2020 05 25 20  15 35 30.437   +11 19 07.73  .95776 1.8869 146.4 22.1 .953 139
2020 05 25 21  15 35 26.769   +11 18 35.70  .95777 1.8868 146.4 22.1 .984 139
2020 05 25 22  15 35 23.103   +11 18 03.63  .95779 1.8868 146.4 22.1 1.01 139
2020 05 25 23  15 35 19.438   +11 17 31.50  .95780 1.8867 146.4 22.1 1.05 139
2020 05 26 00  15 35 15.774   +11 16 59.33  .95781 1.8867 146.4 22.1 1.08 139
2020 05 26 01  15 35 12.111   +11 16 27.10  .95782 1.8866 146.4 22.1 1.11 139
2020 05 26 02  15 35 08.450   +11 15 54.82  .95784 1.8866 146.3 22.1 1.14 139
2020 05 26 03  15 35 04.790   +11 15 22.49  .95785 1.8865 146.3 22.1 1.17 138
2020 05 26 04  15 35 01.131   +11 14 50.11  .95786 1.8865 146.3 22.1 1.21 138